SCP
0 0 0 0 0 0 0 0 0 0 0 0 0 0 0 0 0 0 0 0 0 0 0 0 0 0 0 0 0 0 0 0 0 0 0 0 0 0 0 0 0 0 1
0 0 0 0 0 0 0 0 0 0 0 0 0 0 0 0 0 0 0 0 0 0 0 0 0 0 0 0 0 0 0 0 0 0 0 0 0 0 0 0 0 0 1
0 0 0 0 0 0 0 0 0 0 0 0 0 0 0 0 0 0 0 0 0 0 0 0 0 0 0 0 0 0 0 0 0 0 0 0 0 0 0 0 0 0 1
0 0 0 0 0 0 0 0 0 0 0 0 0 0 0 0 0 0 0 0 0 0 0 0 0 0 0 0 0 0 0 0 0 0 0 0 0 0 0 0 0 0 1
0 0 0 0 0 0 0 0 0 0 0 0 0 0 0 0 0 0 0 0 0 0 0 0 0 0 0 0 0 0 0 0 0 0 0 0 0 0 0 0 0 0 1
0 0 0 0 0 0 0 0 0 0 0 0 0 0 0 0 0 0 0 0 0 0 0 0 0 0 0 0 0 0 0 0 0 0 0 0 0 0 0 0 0 0 0
0 0 0 0 0 0 0 0 0 0 0 0 0 0 0 0 0 0 0 0 0 0 0 0 0 0 0 0 0 0 0 0 0 0 0 0 0 0 0 0 0 1 0
0 0 0 0 0 0 0 0 0 0 0 0 0 0 0 0 0 0 0 0 0 0 0 0 0 0 0 0 0 0 0 0 0 0 0 0 0 0 0 0 1 1 1
0 0 0 0 0 0 0 0 0 0 0 0 0 0 0 0 0 0 0 0 0 0 0 0 0 0 0 0 0 0 0 0 0 0 0 0 0 0 0 0 1 1 1
0 0 0 0 0 0 0 0 0 0 0 0 0 0 0 0 0 0 0 0 0 0 0 0 0 0 0 0 0 0 0 0 0 0 0 0 0 0 0 0 0 1 1
0 0 0 0 0 0 0 0 0 0 0 0 0 0 0 0 0 0 0 0 0 0 0 0 0 0 0 0 0 0 0 0 0 0 0 0 0 0 0 0 0 0 0
0 0 0 0 0 0 0 0 0 0 0 0 0 0 0 0 0 0 0 0 0 0 0 0 0 0 0 0 0 0 0 0 0 0 0 0 0 0 0 0 0 0 0
0 0 0 0 0 0 0 0 0 0 0 0 0 0 0 0 0 0 0 0 0 0 0 0 0 0 0 0 0 0 0 0 0 0 0 0 0 0 0 0 0 0 0
0 0 0 0 0 0 0 0 0 0 0 0 0 0 0 0 0 0 0 0 0 0 0 0 0 0 0 0 0 0 0 0 0 0 0 0 0 0 0 0 0 0 0
0 0 0 0 0 0 0 0 0 0 0 0 0 0 0 0 0 0 0 0 0 0 0 0 0 0 0 0 0 0 0 0 0 0 0 0 0 0 0 0 0 0 0
0 0 0 0 0 0 0 0 0 0 0 0 0 0 0 0 0 0 0 0 0 0 0 0 0 0 0 0 0 0 0 0 0 0 0 0 0 0 0 0 0 0 0
0 0 0 0 0 0 0 0 0 0 0 0 0 0 0 0 0 0 0 0 0 0 0 0 0 0 0 0 0 0 0 0 0 0 0 0 0 0 0 0 0 0 0
0 0 0 0 0 0 0 0 0 0 0 0 0 0 0 0 0 0 0 0 0 0 0 0 0 0 0 0 0 0 0 0 0 0 0 0 0 0 0 0 0 0 0
0 0 0 0 0 0 0 0 0 0 0 0 0 0 0 0 0 0 0 0 0 0 0 0 0 0 0 0 0 0 0 0 0 0 0 0 0 0 0 0 0 0 0
0 0 0 0 0 0 0 0 0 0 0 0 0 0 0 0 0 0 0 0 0 0 0 0 0 0 0 0 0 0 0 0 0 0 0 0 0 0 0 0 0 0 0
0 0 0 0 0 0 0 0 0 0 0 0 0 0 0 0 0 0 0 0 0 0 0 0 0 0 0 0 0 0 0 0 0 0 0 0 0 0 0 0 0 0 0
0 0 0 0 0 0 0 0 0 0 0 0 0 0 0 0 0 0 0 0 0 0 0 0 0 0 0 0 0 0 0 0 0 0 0 0 0 0 0 0 0 0 0
0 0 0 0 0 0 0 0 0 0 0 0 0 0 0 0 0 0 0 0 0 0 0 0 0 0 0 0 0 0 0 0 0 0 0 0 0 0 0 0 0 0 0
0 0 0 0 0 0 0 0 0 0 0 0 0 0 0 0 0 0 0 0 0 0 0 0 0 0 0 0 0 0 0 0 0 0 0 0 0 0 0 0 0 0 0
0 0 0 0 0 0 0 0 0 0 0 0 0 0 0 0 0 0 0 0 0 0 0 0 0 0 0 0 0 0 0 0 0 0 0 0 0 0 0 0 0 0 0
0 0 0 0 0 0 0 0 0 0 0 0 0 0 0 0 0 0 0 0 0 0 0 0 0 0 0 0 0 0 0 0 0 0 0 0 0 0 0 0 0 0 0
Wind_Speed
2 1 2 1 1 2 2 1 1 2 2 3 2 3 3 3 3 3 3 3 3 4 4 3 4 3 2 2 1 1 1 2 3 3 2 2 2 3 3 2 2 2 2
2 2 2 1 2 2 1 1 1 2 2 2 2 2 3 3 3 3 3 3 3 4 4 4 4 4 4 3 2 2 2 2 2 4 3 2 3 2 2 3 3 2 2
2 2 1 1 1 1 0 1 1 1 2 2 2 2 3 3 3 2 2 2 2 3 3 3 4 4 4 3 3 3 2 2 2 3 3 2 2 2 2 2 2 2 2
2 2 1 1 1 1 0 1 1 1 1 2 2 2 2 2 2 2 2 2 3 3 3 3 3 3 4 4 3 3 3 2 2 2 3 3 2 2 1 2 2 2 2
2 2 1 1 0 0 1 1 1 1 1 1 2 2 3 2 2 3 2 2 3 4 4 4 4 6 6 4 3 3 2 2 2 3 3 3 3 2 2 2 3 2 2
2 2 1 1 1 0 0 1 1 1 1 1 2 2 3 3 7 7 4 2 3 3 4 5 5 6 7 8 8 7 5 3 3 3 3 4 5 4 3 3 2 2 3
2 1 1 1 1 0 0 0 1 1 1 2 2 2 3 5 8 8 7 3 3 3 4 4 5 6 7 4 7 9 7 8 7 5 5 6 5 5 4 4 4 4 5
2 1 1 1 1 0 0 0 1 1 1 1 2 3 3 6 9 8 8 3 3 4 4 4 5 6 6 6 5 6 6 6 7 5 6 7 6 5 6 6 6 5 4
2 1 1 2 1 1 0 1 1 1 1 2 2 3 3 6 9 8 7 2 3 4 4 5 5 5 10 10 6 6 7 7 8 9 10 10 11 10 7 3 3 3 4
3 2 2 2 2 1 2 2 1 1 2 2 3 3 3 5 8 9 8 2 3 4 4 5 8 9 12 12 6 5 7 8 6 7 8 8 7 8 9 6 5 4 4
3 2 1 1 2 2 1 1 1 1 1 2 3 3 3 5 7 9 9 3 3 4 4 4 5 12 14 14 11 6 10 10 6 6 6 6 5 5 5 5 5 5 6
3 2 1 1 1 1 1 1 1 0 1 2 3 4 3 4 6 8 10 9 7 4 5 5 6 13 15 15 10 11 14 12 4 4 5 5 5 5 5 5 6 6 7
3 2 1 1 1 1 1 1 1 1 1 2 2 3 4 4 5 9 10 11 10 6 5 10 12 14 13 10 11 14 11 5 4 5 6 6 5 5 5 4 5 5 6
4 3 2 1 1 1 1 1 1 2 2 2 3 4 4 4 4 4 4 5 7 6 5 8 12 12 8 8 10 8 5 5 5 6 6 6 5 4 5 4 4 4 5
4 3 2 2 2 2 2 2 3 4 4 4 4 4 4 5 7 9 7 5 4 5 6 4 4 5 5 5 5 5 5 4 5 5 5 6 5 5 5 4 4 4 5
4 3 2 2 2 2 2 3 4 6 8 9 9 7 6 9 11 12 12 11 11 11 7 4 5 5 6 6 6 6 5 5 6 6 6 6 6 6 6 4 4 5 6
5 4 3 2 2 2 2 2 4 5 6 8 9 9 9 10 11 11 11 11 11 10 5 5 6 6 6 6 6 6 6 6 6 6 6 6 6 6 5 5 5 6 6
4 5 4 3 3 3 3 3 3 4 5 5 6 9 10 11 11 11 10 8 6 5 4 6 6 7 7 7 7 7 7 6 6 6 7 7 6 6 6 6 6 6 6
4 3 3 3 3 3 3 3 3 4 4 5 5 6 9 9 9 10 8 4 5 6 6 6 7 7 7 7 7 7 7 7 7 7 6 7 6 6 6 6 6 8 7
4 7 5 3 3 3 3 3 4 4 5 5 5 6 5 4 4 5 4 4 5 6 7 7 7 7 7 7 7 7 7 7 7 7 7 6 6 6 7 8 7 6 6
4 4 6 3 3 4 4 4 5 5 5 5 6 7 9 5 6 7 6 6 6 7 7 7 7 7 7 7 7 8 9 8 7 7 7 6 6 6 6 7 7 7 6
4 4 3 4 4 4 4 5 5 5 6 6 6 7 10 6 5 6 7 7 7 7 7 7 7 7 7 7 7 8 8 9 8 7 7 7 6 6 6 7 7 6 6
4 4 4 4 4 6 5 4 5 5 6 6 6 6 6 6 6 7 7 8 7 7 7 7 8 8 7 7 7 8 9 9 8 8 8 8 7 7 6 7 8 7 7
5 5 5 5 4 4 5 5 5 5 6 6 6 6 7 7 7 8 8 8 7 7 7 7 8 10 12 10 8 7 8 9 9 8 10 10 9 7 7 7 7 8 8
5 5 5 5 5 5 5 5 5 6 6 6 7 7 7 7 7 8 8 8 9 9 10 9 8 9 11 13 12 10 12 15 14 10 9 9 10 9 8 8 8 8 8
5 5 5 4 4 5 5 5 6 6 6 7 7 7 7 7 8 8 8 8 8 8 9 8 9 11 13 11 12 14 16 16 15 15 10 8 9 9 8 7 9 9 8
Wind_Direction
114 100 84 71 91 95 80 45 23 11 12 15 9 17 15 11 9 18 10 10 11 360 358 358 343 332 337 333 323 290 248 211 245 278 277 297 300 299 309 306 294 283 280
148 124 106 84 94 90 63 20 20 12 5 6 11 17 11 8 5 10 358 2 0 349 342 345 337 338 335 326 322 306 279 244 232 270 292 300 291 284 291 296 301 287 270
148 133 116 104 101 116 14 353 9 15 9 9 13 5 354 349 350 349 347 344 339 328 326 328 322 331 324 317 312 306 293 291 259 257 276 278 283 293 300 297 293 297 281
145 140 149 180 181 201 286 344 349 354 358 349 347 340 333 330 328 333 339 334 326 321 316 312 311 308 298 304 311 308 303 301 294 276 278 284 275 278 264 274 289 284 285
140 147 183 192 133 77 16 337 339 335 327 325 341 340 332 321 323 327 318 315 313 317 317 309 303 307 311 310 312 305 305 292 289 285 281 286 278 269 258 250 259 277 276
153 172 173 123 101 84 329 342 343 327 326 342 332 325 325 324 330 332 322 301 300 303 305 307 307 308 314 320 315 308 298 288 277 266 269 270 268 259 258 250 242 256 268
144 141 128 136 136 241 309 25 315 299 314 322 315 317 309 308 322 330 326 313 290 288 290 296 305 312 318 307 308 312 304 294 281 263 255 257 261 256 249 253 242 235 241
129 126 129 137 157 185 96 293 286 284 282 289 298 303 305 312 328 332 330 329 293 286 283 278 281 291 295 298 297 299 290 288 281 273 253 253 257 254 239 245 245 252 263
149 170 182 171 167 158 228 268 269 263 279 278 284 296 301 308 323 327 331 318 304 297 291 287 285 282 294 303 298 295 296 292 286 283 280 275 273 273 263 248 239 238 260
192 195 188 171 164 187 227 248 248 241 257 278 292 290 287 294 313 324 328 308 303 301 300 295 297 298 302 305 292 282 288 288 290 294 293 289 281 274 262 235 224 233 248
188 174 172 181 182 200 209 235 261 268 291 297 298 299 293 293 310 321 322 313 286 293 298 298 295 305 306 303 297 274 275 286 279 275 279 282 277 266 255 238 226 224 234
158 159 185 209 221 187 169 265 302 287 296 298 304 307 300 299 307 314 319 316 309 292 290 290 291 303 306 306 299 286 288 292 278 274 276 277 275 271 264 250 241 240 242
157 178 210 218 227 208 191 223 277 276 270 286 289 292 297 300 304 314 317 317 313 303 286 294 302 306 308 306 300 299 297 285 268 267 268 268 263 264 267 263 255 252 257
173 195 207 209 236 247 230 213 217 243 255 269 273 277 285 292 291 294 295 303 307 307 301 300 306 307 299 292 300 302 288 268 266 261 266 269 269 269 265 254 254 253 259
182 199 211 218 227 243 249 236 232 236 232 243 249 251 265 280 280 289 296 292 290 287 301 302 305 306 303 298 295 292 285 280 274 263 264 269 269 270 268 254 245 245 244
184 204 212 218 229 235 255 289 268 258 274 270 266 265 264 266 285 294 297 299 301 303 309 297 294 292 290 288 291 292 285 275 270 266 263 261 262 264 268 261 244 243 249
191 203 210 217 225 237 246 260 289 299 290 281 280 282 278 280 286 291 295 300 300 305 298 284 284 284 284 283 282 280 280 278 271 265 263 260 259 261 261 259 253 249 251
196 212 213 217 226 234 241 246 250 268 292 292 289 289 289 288 288 289 293 304 299 295 272 275 278 279 280 281 280 278 277 279 273 267 263 256 252 257 258 255 254 253 253
196 210 215 220 227 236 244 251 254 257 263 275 289 295 291 292 292 287 291 274 273 278 274 273 273 274 276 276 277 276 274 275 273 269 265 257 251 253 254 252 253 254 252
206 225 223 219 228 240 247 251 257 260 264 268 273 278 290 297 293 290 280 266 269 273 275 276 275 273 274 274 276 275 274 273 274 270 265 259 253 252 251 251 251 251 249
206 227 237 235 230 237 243 247 252 255 260 266 268 271 273 276 274 277 278 274 271 273 274 275 275 275 273 274 276 274 272 271 269 269 264 257 254 255 252 248 251 251 248
202 214 220 228 236 241 249 250 253 258 263 268 276 281 281 274 270 273 273 274 270 267 271 274 275 272 269 271 274 274 273 273 271 271 269 260 255 254 251 249 248 249 246
204 216 227 234 238 253 260 256 256 258 262 265 270 275 276 272 271 271 273 275 275 273 272 272 275 275 272 270 269 267 269 270 269 268 271 266 257 253 248 247 247 250 249
207 217 227 237 240 242 250 256 257 259 261 266 269 269 269 270 273 275 277 280 278 275 274 273 273 274 277 280 277 270 268 269 271 270 267 264 257 254 250 247 247 249 249
210 220 227 233 237 242 248 254 258 260 263 266 270 272 272 273 276 279 280 280 279 278 277 277 276 277 279 280 279 277 275 273 271 270 269 263 254 248 246 246 246 248 247
214 221 228 231 234 238 244 251 257 260 263 268 270 271 273 275 277 279 280 280 281 282 282 280 279 281 283 283 283 284 283 280 275 271 267 259 251 246 240 240 243 241 240